Home > Weather > Wuppertal > Past weeks

Flag for Germany Past Weather in Wuppertal, North Rhine-Westphalia, Germany — Yesterday and Last 2 Weeks

Now
70 °F

Passing clouds.


Feels Like: 70 °F
Forecast: 60 / 78 °F
Wind: 6 mph from Northeast

Location: Duesseldorf

Current Time: Jul 23, 2016 at 11:15:11 PM

Latest Report: Jul 23, 2016 at 10:20 PM


Visibility: N/A

Pressure: 30.09 "Hg

Humidity: 83%

Dew Point: 64 °F

Location of WuppertalLocation

Past Weather in Wuppertal — Graph

°F

Wuppertal Temperature Yesterday

Maximum temperature yesterday: 82 °F (at 4:50 PM)
Minimum temperature yesterday: 66 °F (at 5:20 AM)
Average temperature yesterday: 74 °F

High & Low Weather Summary for the Past Weeks

 TemperatureHumidityPressure
High95 °F (Jul 20, 4:20 PM)100% (Jul 13, 3:50 AM)30.30 "Hg (Jul 13, 3:50 AM)
Low46 °F (Jul 14, 4:20 AM)30% (Jul 20, 2:50 PM)29.74 "Hg (Jul 10, 8:50 PM)
Average69 °F70%30.04 "Hg
* Reported Jul 8 10:20 PM — Jul 23 10:20 PM, Wuppertal, Weather by CustomWeather, © 2016

Note: Actual official high and low records may vary slightly from our data, if they occured in-between our weather recording intervals... More about our weather records

Advertising

Wuppertal Weather History for the Previous 24 Hours

Scroll right to see more
 ConditionsComfort  
Time TempWeatherWind HumidityBarometerVisibility
10:20 PM
Sat, Jul 23
70 °FPassing clouds.6 mph83%30.09 "HgN/A
9:50 PM70 °FPassing clouds.7 mph83%30.07 "HgN/A
9:20 PM73 °FScattered clouds.3 mph74%30.07 "HgN/A
8:50 PM73 °FScattered clouds.2 mph74%30.07 "HgN/A
8:20 PM75 °FScattered clouds.6 mph69%30.07 "HgN/A
7:50 PM75 °FScattered clouds.3 mph74%30.07 "HgN/A
7:20 PM75 °FScattered clouds.6 mph74%30.07 "HgN/A
6:50 PM75 °FScattered clouds.5 mph74%30.07 "HgN/A
6:20 PM77 °FBroken clouds.8 mph65%30.07 "HgN/A
5:50 PM77 °FBroken clouds.7 mph65%30.07 "HgN/A
5:20 PM79 °FBroken clouds.6 mph61%30.07 "HgN/A
4:50 PM81 °FBroken clouds.6 mph62%30.07 "HgN/A
4:20 PM79 °FBroken clouds.7 mph65%30.07 "HgN/A
3:50 PM77 °FBroken clouds.5 mph65%30.07 "HgN/A
3:20 PM77 °FBroken clouds.7 mph65%30.07 "Hg5 mi
2:50 PM77 °FBroken clouds.8 mph69%30.07 "Hg5 mi
2:20 PM75 °FBroken clouds.8 mph74%30.07 "Hg6 mi
1:50 PM75 °FBroken clouds.7 mph74%30.07 "Hg5 mi
1:20 PM75 °FPartly sunny.6 mph74%30.07 "Hg5 mi
12:50 PM75 °FPartly sunny.5 mph74%30.07 "Hg5 mi
12:20 PM73 °FLight rain. Broken clouds.6 mph78%30.07 "Hg5 mi
11:50 AM73 °FLight rain. Broken clouds.7 mph78%30.07 "Hg5 mi
11:20 AM72 °FLight rain. Broken clouds.9 mph78%30.07 "Hg5 mi
10:50 AM72 °FLight rain. Broken clouds.8 mph78%30.07 "Hg5 mi
10:20 AM72 °FScattered showers. Broken clouds.8 mph83%30.04 "Hg5 mi
9:50 AM72 °FBroken clouds.6 mph83%30.04 "Hg5 mi
9:20 AM70 °FBroken clouds.6 mph88%30.04 "Hg5 mi
8:50 AM70 °FBroken clouds.6 mph88%30.04 "Hg5 mi
8:20 AM70 °FClear.6 mph88%30.04 "Hg5 mi
7:50 AM68 °FClear.3 mph94%30.04 "Hg5 mi
7:20 AM68 °FClear.3 mph88%30.04 "Hg6 mi
6:50 AM68 °FClear.2 mph88%30.04 "Hg5 mi
6:20 AM68 °FClear.5 mph88%30.01 "Hg5 mi
5:50 AM66 °FClear.5 mph94%30.01 "Hg5 mi
5:20 AM68 °FClear.2 mph88%30.01 "Hg10 mi
4:50 AM68 °FClear.3 mph88%30.01 "Hg10 mi
4:20 AM68 °FClear.3 mph88%30.01 "Hg10 mi
3:50 AM68 °FPassing clouds.3 mph83%30.01 "HgN/A
3:20 AM68 °FClear.2 mph83%30.01 "Hg10 mi
2:50 AM68 °FClear.3 mph83%30.01 "Hg10 mi
2:20 AM68 °FClear.2 mph83%30.01 "Hg10 mi
1:50 AM68 °FClear.2 mph83%30.01 "Hg10 mi
1:20 AM70 °FClear.5 mph78%30.01 "Hg10 mi
12:50 AM70 °FClear.6 mph78%30.04 "Hg10 mi
12:20 AM70 °FClear.3 mph78%30.04 "Hg10 mi
11:50 PM
Fri, Jul 22
72 °FClear.6 mph69%30.04 "Hg10 mi
11:20 PM72 °FClear.7 mph69%30.01 "Hg10 mi
Weather by CustomWeather, © 2016

See weather overviewHow to use our weather pages